Content
SEND FEEDBACK

Daily
Averages
Monthly
Summary
Netherlands

MAASTRICHT, NETHERLANDS


Home > Europe > Netherlands
Elevation: 380 feet     Latitude: 50 55N     Longitude: 005 47E

WEATHER
 
SELECT A DAY
Number of Records: 303,126;   Date Range: 7/1/96 - 9/22/14
 
SHARE

PRINT THIS DATA

[ ← Previous Day ]
WEATHER ALMANAC - FEBRUARY 11, 2013
[ Next Day → ]
[ °C ]   °F
Weather ElementAverageHighLow
Temperature29.9 °F32 °F (3:25 pm)26.6 °F (12:55 am)
Dewpoint21.5 °F26.6 °F (1:25 pm)15.8 °F (2:25 am)
Humidity69.3 %86 % (1:25 pm)54 % (4:00 am)
Barometer29.55 in29.70 in (10:00 pm)29.47 in (3:55 am)
Wind Speed13.2 mph17.9 mph (1:00 am)
Weather ElementAverage
Visibility7.4 mi
Wind DirectionE (93.8 °)

Weather ElementTotal
Precipitation---
Heating Degree Days35.7 (Base 65)
Averaged from 53 records on February 11, 2013
WEATHER CONDITIONS BREAKOUT
WIND DIRECTION BREAKOUT
WEATHER BY HOUR - FEBRUARY 11, 2013
[ °C ]   °F
Local TimeTemperatureDewpointHumidityBarometerVisibilityWind DirectionWind SpeedGust SpeedPrecipitationEventsConditions
12:55 AM26.6 °F17.6 °F69 %29.53 in6.2 miEast (100°)17.3 mph
1:00 AM27.0 °F17.0 °F56 %29.56 in25.0 miEast (100°)17.9 mphPartly Cloudy
1:25 AM26.6 °F17.6 °F69 %29.50 in6.2 miEast (100°)17.3 mph
1:55 AM26.6 °F17.6 °F69 %29.50 in6.2 miEast (100°)16.1 mph
2:25 AM26.6 °F15.8 °F64 %29.50 in6.2 miEast (100°)13.8 mph
2:55 AM26.6 °F17.6 °F69 %29.50 in6.2 miEast (100°)15.0 mph
3:25 AM28.4 °F17.6 °F64 %29.50 in6.2 miEast (90°)15.0 mphMostly Cloudy
3:55 AM28.4 °F17.6 °F64 %29.47 in6.2 miEast (90°)16.1 mphMostly Cloudy
4:00 AM28.0 °F18.0 °F54 %29.52 in22.0 miEast (90°)13.4 mphScattered Clouds
4:25 AM28.4 °F17.6 °F64 %29.47 in6.2 miEast (90°)12.7 mphOvercast
4:55 AM28.4 °F17.6 °F64 %29.47 in6.2 miEast (90°)13.8 mphOvercast
5:25 AM28.4 °F19.4 °F69 %29.47 in6.2 miEast (90°)13.8 mphPartly Cloudy
5:55 AM28.4 °F19.4 °F69 %29.47 in6.2 miEast (100°)11.5 mph
6:25 AM28.4 °F19.4 °F69 %29.47 in6.2 miEast (90°)12.7 mphMostly Cloudy
6:55 AM28.4 °F19.4 °F69 %29.47 in6.2 miEast (90°)12.7 mphOvercast
7:00 AM29.0 °F20.0 °F57 %29.51 in19.0 miEast (90°)13.4 mphRainDrizzle
7:25 AM28.4 °F21.2 °F74 %29.47 in6.2 miEast (90°)12.7 mphOvercast
7:55 AM28.4 °F21.2 °F74 %29.47 in6.2 miEast (90°)12.7 mphOvercast
8:25 AM28.4 °F21.2 °F74 %29.47 in6.2 miEast (90°)13.8 mphOvercast
8:55 AM28.4 °F21.2 °F74 %29.47 in6.2 miEast (90°)13.8 mphOvercast
9:25 AM30.2 °F21.2 °F69 %29.50 in6.2 miEast (100°)12.7 mphOvercast
9:55 AM30.2 °F21.2 °F69 %29.50 in6.2 miEast (90°)15.0 mphOvercast
10:00 AM30.0 °F21.0 °F58 %29.54 in9.0 miEast (90°)13.4 mphSnowSnow Grains
10:25 AM30.2 °F21.2 °F69 %29.50 in6.2 miEast (90°)12.7 mphOvercast
10:55 AM30.2 °F21.2 °F69 %29.50 in6.2 miEast (90°)13.8 mphOvercast
11:25 AM30.2 °F21.2 °F69 %29.50 in6.2 miEast (90°)13.8 mphMostly Cloudy
11:55 AM30.2 °F21.2 °F69 %29.53 in6.2 miEast (90°)13.8 mphOvercast
12:25 PM30.2 °F24.8 °F80 %29.53 inEast (100°)13.8 mphSnowLight Snow
12:55 PM30.2 °F24.8 °F80 %29.53 inEast (100°)13.8 mphSnowLight Snow
1:00 PM30.0 °F26.0 °F78 %29.58 in2.0 miEast (90°)11.2 mphSnowLight Snow Showers
1:25 PM30.2 °F26.6 °F86 %29.53 inEast (80°)12.7 mphSnowLight Snow
1:55 PM30.2 °F26.6 °F86 %29.53 in3.7 miEast (80°)13.8 mphSnowLight Snow
2:25 PM30.2 °F24.8 °F80 %29.53 in6.2 miEast (90°)13.8 mphPartly Cloudy
2:55 PM30.2 °F24.8 °F80 %29.53 in5.6 miEast (90°)12.7 mphMostly Cloudy
3:25 PM32.0 °F24.8 °F75 %29.56 in6.2 miEast (90°)12.7 mphOvercast
3:55 PM32.0 °F24.8 °F75 %29.56 in6.2 miEast (90°)12.7 mphOvercast
4:00 PM32.0 °F24.0 °F63 %29.60 in11.0 miEast (90°)13.4 mphSnowSnow Grains
4:25 PM32.0 °F24.8 °F75 %29.56 in6.2 miEast (100°)15.0 mphOvercast
4:55 PM32.0 °F24.8 °F75 %29.56 in6.2 miEast (100°)13.8 mphOvercast
5:25 PM32.0 °F23.0 °F69 %29.59 in6.2 miEast (90°)12.7 mphOvercast
5:55 PM32.0 °F23.0 °F69 %29.59 in6.2 miEast (100°)13.8 mphOvercast
6:25 PM32.0 °F23.0 °F69 %29.59 in6.2 miEast (100°)11.5 mphSnowLight Snow
6:55 PM32.0 °F23.0 °F69 %29.62 in6.2 miEast (100°)11.5 mphOvercast
7:00 PM31.0 °F23.0 °F61 %29.65 in10.0 miEast (100°)13.4 mphSnowSnow Grains
7:25 PM32.0 °F23.0 °F69 %29.62 in6.2 miEast (100°)13.8 mphOvercast
7:55 PM32.0 °F23.0 °F69 %29.62 in6.2 miESE (110°)13.8 mphOvercast
8:25 PM32.0 °F23.0 °F69 %29.65 in6.2 miESE (110°)13.8 mphOvercast
8:55 PM32.0 °F23.0 °F69 %29.65 in6.2 miESE (110°)11.5 mphOvercast
9:25 PM32.0 °F23.0 °F69 %29.65 in6.2 miEast (100°)10.4 mphOvercast
9:55 PM32.0 °F21.2 °F64 %29.65 in6.2 miEast (90°)6.9 mphOvercast
10:00 PM32.0 °F22.0 °F56 %29.70 in16.0 miEast (80°)6.7 mphOvercast
10:25 PM32.0 °F23.0 °F69 %29.68 in6.2 miEast (80°)10.4 mphOvercast
10:55 PM32.0 °F21.2 °F64 %29.68 in6.2 miEast (90°)10.4 mphOvercast
Hourly data recorded from EHBK, located miles away from Maastricht, Netherlands







STORIES FROM OUR PARTNERS